This is the latest recevied weather packets stored in our database for station/object KB8TTR. If no packets are shown the sender has not sent any weather packets the latest 10 day(s).
| Time | Temp. | Humidity | Pressure | Rain* | Wind** | Luminosity | Snow |
|---|---|---|---|---|---|---|---|
| 1788396397 | 28.89° C | 74% | 1014.7 hPa | 0 mm | - | 0 W/m² | - |
| 1788396092 | 28.89° C | 73% | 1014.5 hPa | 0 mm | - | 0 W/m² | - |
| 1788395788 | 28.89° C | 73% | 1014.8 hPa | 0 mm | - | 0 W/m² | - |
| 1788395483 | 29.44° C | 72% | 1014.6 hPa | 0 mm | - | 0 W/m² | - |
| 1788395178 | 29.44° C | 72% | 1014.7 hPa | 0 mm | - | 0 W/m² | - |
| 1788394872 | 29.44° C | 71% | 1014.6 hPa | 0 mm | - | 0 W/m² | - |
| 1788394567 | 29.44° C | 70% | 1014.8 hPa | 0 mm | - | 1 W/m² | - |
| 1788394267 | 30° C | 70% | 1014.6 hPa | 0 mm | - | 1 W/m² | - |
| 1788393963 | 30° C | 68% | 1014.8 hPa | 0 mm | - | 3 W/m² | - |
| 1788393661 | 30.56° C | 67% | 1014.7 hPa | 0 mm | - | 5 W/m² | - |
| 1788393361 | 30.56° C | 66% | 1014.7 hPa | 0 mm | - | 7 W/m² | - |
| 1788393056 | 30.56° C | 65% | 1014.8 hPa | 0 mm | - | 11 W/m² | - |
| 1788392750 | 31.11° C | 65% | 1014.8 hPa | 0 mm | - | 14 W/m² | - |
| 1788392449 | 31.11° C | 64% | 1014.7 hPa | 0 mm | - | 19 W/m² | - |
| 1788392144 | 31.67° C | 63% | 1014.8 hPa | 0 mm | - | 23 W/m² | - |
| 1788391844 | 31.67° C | 62% | 1014.5 hPa | 0 mm | - | 27 W/m² | - |
| 1788391538 | 32.22° C | 61% | 1014.4 hPa | 0 mm | - | 32 W/m² | - |
| 1788391238 | 32.22° C | 60% | 1014.7 hPa | 0 mm | - | 42 W/m² | - |
| 1788390933 | 32.22° C | 60% | 1014.6 hPa | 0 mm | - | 47 W/m² | - |
| 1788390633 | 32.22° C | 60% | 1014.5 hPa | 0 mm | - | 50 W/m² | - |
| 1788390333 | 32.22° C | 60% | 1014.6 hPa | 0 mm | - | 50 W/m² | - |
| 1788390032 | 32.78° C | 60% | 1014.6 hPa | 0 mm | - | 61 W/m² | - |
| 1788389728 | 32.78° C | 59% | 1014.6 hPa | 0 mm | - | 69 W/m² | - |
| 1788389427 | 32.78° C | 59% | 1014.4 hPa | 0 mm | - | 58 W/m² | - |
| 1788389126 | 32.78° C | 59% | 1014.6 hPa | 0 mm | - | 60 W/m² | - |
* Rain latest hour (hover to see other rain measurements)
** Current wind speed in m/s (hover to see current wind gust speed)